Preview of NWS' New Version of Forecast
This preview is not operational and should not be used for support decisions.

Regional Weather Roundup (RWR)

Issued by National Weather Service (NWS)

                            
000
ASUS45 KCYS 201410
RWRWY 

WYOMING REGIONAL WEATHER ROUNDUP
NATIONAL WEATHER SERVICE CHEYENNE WY
800 AM MDT TUE AUG 20 2019

NOTE:  "FAIR" INDICATES FEW OR NO CLOUDS BELOW 12,000 FEET
WITH NO SIGNIFICANT WEATHER AND/OR OBSTRUCTIONS TO VISIBILITY.

WYZ001-201500-
...YELLOWSTONE NATIONAL PARK...
  
CITY           SKY/WX    TMP DP  RH WIND       PRES   REMARKS
LK YELLOWSTONE   N/A     45  37  73 CALM      30.39R                  
W YELLOWSTONE  NOT AVBL                                               

$$
WYZ002>013-054>058-071-098>099-201500-
...NORTHERN WYOMING...
  
CITY           SKY/WX    TMP DP  RH WIND       PRES   REMARKS
JACKSON        SUNNY     49  35  58 N3        30.31R                  
CODY           MOSUNNY   63  42  46 SW5       30.19R                  
GREYBULL       MOSUNNY   63  42  46 SE3       30.10R                  
WORLAND        MOSUNNY   62  46  55 CALM      30.12R                  
SHERIDAN       MOSUNNY   64  47  53 N5        30.14R                  
BUFFALO        MOSUNNY   70  42  36 N3        30.19R                  
GILLETTE       MOSUNNY   67  49  52 CALM      30.12R                  
HULETT         FAIR      68  52  56 CALM      30.15R                  
NEWCASTLE      FAIR      72  48  43 NW3       30.11R                  

$$
WYZ014>020-022>026-101>103-201500-
...CENTRAL WYOMING...
  
CITY           SKY/WX    TMP DP  RH WIND       PRES   REMARKS
BIG PINEY      PTSUNNY   49  30  48 N3        30.33R                  
PINEDALE       MOSUNNY   48  34  57 NW5       30.34R                  
DUBOIS         FAIR      50  30  46 W12       30.32R                  
LANDER         MOSUNNY   66  35  31 CALM      30.19S                  
RIVERTON       MOSUNNY   70  39  32 NW9       30.19R                  
CASPER         PTSUNNY   66  40  38 NW7       30.19R                  
DOUGLAS        SUNNY     62  41  46 NW12      30.17R                  

$$
WYZ021-027>030-104>119-201500-
...SOUTHERN WYOMING...
  
CITY           SKY/WX    TMP DP  RH WIND       PRES   REMARKS
EVANSTON       SUNNY     57  25  29 SE8       30.31R                  
KEMMERER       SUNNY     52  30  43 N12       30.32R                  
FORT BRIDGER   NOT AVBL                                               
ROCK SPRINGS   MOSUNNY   60  25  26 S5        30.29R                  
DIXON          FAIR      57  28  33 E9G22     30.33R                  
RAWLINS        SUNNY     60  27  28 CALM      30.31R                  
SARATOGA       FAIR      55  32  41 CALM      30.34R                  
LARAMIE        SUNNY     62  30  29 S7        30.33R                  
CHEYENNE       MOSUNNY   68  35  29 W12       30.22R                  
TORRINGTON     MOSUNNY   68  60  75 CALM      30.06R                  
PINE BLUFFS    FAIR      61  54  77 CALM      30.14R                  

$$